This is the latest recevied weather packets stored in our database for station/object IZ1UQG-2. If no packets are shown the sender has not sent any weather packets the latest 10 day(s).
| Time | Temp. | Humidity | Pressure | Rain* | Wind** | Luminosity | Snow |
|---|---|---|---|---|---|---|---|
| 1777306268 | 24.44° C | 47% | 1011.8 hPa | 0 mm | - | 118 W/m² | - |
| 1777306089 | 24.44° C | 46% | 1011.9 hPa | 0 mm | - | 232 W/m² | - |
| 1777305788 | 24.44° C | 45% | 1011.8 hPa | 0 mm | - | 299 W/m² | - |
| 1777305729 | 24.44° C | 45% | 1011.7 hPa | 0 mm | - | 295 W/m² | - |
| 1777305668 | 24.44° C | 45% | 1011.7 hPa | 0 mm | - | 278 W/m² | - |
| 1777304775 | 23.89° C | 46% | 1011.9 hPa | 0 mm | - | 302 W/m² | - |
| 1777304528 | 24.44° C | 46% | 1011.8 hPa | 0 mm | - | 348 W/m² | - |
| 1777303989 | 23.89° C | 45% | 1011.9 hPa | 0 mm | - | 151 W/m² | - |
| 1777303809 | 24.44° C | 45% | 1011.9 hPa | 0 mm | - | 376 W/m² | - |
| 1777303574 | 23.89° C | 46% | 1012.1 hPa | 0 mm | - | 355 W/m² | - |
| 1777302669 | 24.44° C | 45% | 1012.1 hPa | 0 mm | - | 462 W/m² | - |
| 1777302369 | 24.44° C | 44% | 1012.2 hPa | 0 mm | - | 476 W/m² | - |
| 1777302009 | 24.44° C | 44% | 1012.2 hPa | 0 mm | - | 431 W/m² | - |
| 1777301709 | 24.44° C | 45% | 1012.2 hPa | 0 mm | - | 429 W/m² | - |
| 1777299788 | 25° C | 44% | 1012.5 hPa | 0 mm | - | 543 W/m² | - |
| 1777299669 | 25° C | 45% | 1012.5 hPa | 0 mm | - | 573 W/m² | - |
| 1777299309 | 24.44° C | 47% | 1012.7 hPa | 0 mm | - | 591 W/m² | - |
| 1777299009 | 23.89° C | 46% | 1012.9 hPa | 0 mm | - | 605 W/m² | - |
| 1777298769 | 23.89° C | 46% | 1013 hPa | 0 mm | - | 606 W/m² | - |
| 1777298709 | 23.89° C | 46% | 1012.9 hPa | 0 mm | - | 599 W/m² | - |
| 1777298528 | 23.89° C | 46% | 1013 hPa | 0 mm | - | 624 W/m² | - |
| 1777298168 | 24.44° C | 44% | 1013 hPa | 0 mm | - | 624 W/m² | - |
| 1777297269 | 24.44° C | 44% | 1013.3 hPa | 0 mm | - | 657 W/m² | - |
| 1777296068 | 23.89° C | 44% | 1013.5 hPa | 0 mm | - | 693 W/m² | - |
| 1777296009 | 24.44° C | 45% | 1013.6 hPa | 0 mm | - | 694 W/m² | - |
* Rain latest hour (hover to see other rain measurements)
** Current wind speed in m/s (hover to see current wind gust speed)